Weather History for KVLL - October, 2012

Change the Weather History Date:

Friday, October 19, 2012

  Actual Average (WUND) Record (WUND)
Temperature  
Mean Temperature 52 °F -  
Max Temperature 58 °F - - (-1)
Min Temperature 46 °F - - (-1)
Degree Days  
Heating Degree Days 13    
Growing Degree Days 2 (Base 50)    
Moisture  
Dew Point 41 °F    
Average Humidity 69    
Maximum Humidity 90    
Minimum Humidity 43    
Precipitation  
Precipitation 0.00 in - - ()
Sea Level Pressure  
Sea Level Pressure 29.62 in    
Wind  
Wind Speed 5 mph (South)    
Max Wind Speed 15 mph    
Max Gust Speed 26 mph    
Visibility 10 miles    
Events Rain    
Averages and records for this station are not official NWS values.
T = Trace of Precipitation, MM = Missing Value Source: NWS Daily Summary

Daily Weather History Graph

Daily Weather History Graph

Search for Another Location

Airport or City:

Trip Planner

Search our weather history database for the weather conditions in past years. The results will help you decide how hot, cold, wet, or windy it might be!

Date:

Astronomy

Oct. 19, 2012 Rise Set
Actual Time 7:51 AM EDT 6:43 PM EDT
Civil Twilight 7:22 AM EDT 7:11 PM EDT
Nautical Twilight 6:49 AM EDT 7:44 PM EDT
Astronomical Twilight 6:17 AM EDT 8:17 PM EDT
Moon 12:37 PM EDT (10/19) 10:16 PM EDT (10/19)
Length of Visible Light 11h 49m
Length of Day
10h 52m
Waxing Crescent, 23% of the Moon is Illuminated
Oct 19
Waxing Crescent
Oct 21
First Quarter
Oct 29
Full
Nov 6
Last Quarter
Nov 13
New

Hourly Weather History & Observations

Time (EDT) Temp. Windchill Dew Point Humidity Pressure Visibility Wind Dir Wind Speed Gust Speed Precip Events Conditions
12:15 AM 52.7 °F - 35.6 °F 52% 29.69 in 10.0 mi South 4.6 mph - N/A   Clear
12:34 AM 52.5 °F - 35.6 °F 53% 29.68 in 10.0 mi South 4.6 mph - N/A   Scattered Clouds
12:55 AM 50.9 °F - 36.1 °F 57% 29.68 in 10.0 mi Calm Calm - N/A   Scattered Clouds
1:15 AM 49.3 °F - 36.3 °F 61% 29.68 in 10.0 mi Calm Calm - N/A   Clear
1:35 AM 48.7 °F - 37.0 °F 64% 29.67 in 10.0 mi Calm Calm - N/A   Scattered Clouds
1:55 AM 47.7 °F - 37.4 °F 68% 29.67 in 10.0 mi Calm Calm - N/A   Clear
2:15 AM 48.2 °F - 37.4 °F 66% 29.67 in 10.0 mi Calm Calm - N/A   Scattered Clouds
2:35 AM 48.2 °F - 37.4 °F 66% 29.66 in 10.0 mi Calm Calm - N/A   Scattered Clouds
2:55 AM 46.8 °F - 37.8 °F 71% 29.66 in 10.0 mi East 3.5 mph - N/A   Scattered Clouds
3:15 AM 48.2 °F - 37.4 °F 66% 29.65 in 10.0 mi ESE 3.5 mph - N/A   Scattered Clouds
3:35 AM 48.4 °F - 37.6 °F 66% 29.65 in 10.0 mi SE 3.5 mph - N/A   Mostly Cloudy
3:54 AM 48.9 °F - 38.3 °F 67% 29.65 in 10.0 mi ESE 3.5 mph - N/A   Scattered Clouds
4:15 AM 49.8 °F - 38.5 °F 65% 29.65 in 10.0 mi SE 3.5 mph - N/A   Mostly Cloudy
4:35 AM 50.0 °F - 39.4 °F 67% 29.65 in 10.0 mi Calm Calm - N/A   Overcast
4:54 AM 50.4 °F - 40.1 °F 68% 29.64 in 10.0 mi ESE 4.6 mph - N/A   Overcast
5:15 AM 50.7 °F - 40.8 °F 69% 29.64 in 10.0 mi ESE 3.5 mph - N/A   Overcast
5:35 AM 50.5 °F - 41.9 °F 72% 29.63 in 10.0 mi ESE 3.5 mph - N/A   Overcast
5:54 AM 50.5 °F - 42.8 °F 75% 29.63 in 10.0 mi ESE 4.6 mph - N/A   Overcast
6:15 AM 50.9 °F - 43.7 °F 76% 29.63 in 10.0 mi SE 3.5 mph - N/A   Overcast
6:35 AM 51.3 °F - 43.9 °F 76% 29.63 in 10.0 mi SSE 3.5 mph - N/A   Overcast
6:54 AM 51.1 °F - 44.1 °F 77% 29.63 in 10.0 mi SSE 3.5 mph - N/A   Overcast
7:15 AM 51.8 °F - 44.1 °F 75% 29.63 in 10.0 mi SSE 4.6 mph - N/A   Overcast
7:35 AM 52.3 °F - 43.7 °F 72% 29.63 in 10.0 mi South 5.8 mph - N/A   Overcast
7:55 AM 52.7 °F - 44.1 °F 72% 29.63 in 10.0 mi South 4.6 mph - N/A   Overcast
8:15 AM 52.7 °F - 44.2 °F 73% 29.62 in 10.0 mi SSE 5.8 mph - N/A   Overcast
8:35 AM 52.7 °F - 44.4 °F 73% 29.62 in 10.0 mi SSE 3.5 mph - N/A   Overcast
8:55 AM 52.9 °F - 44.2 °F 72% 29.63 in 10.0 mi SSE 5.8 mph - N/A   Overcast
9:15 AM 53.2 °F - 44.2 °F 72% 29.63 in 10.0 mi SSE 9.2 mph - N/A   Overcast
9:34 AM 53.6 °F - 43.0 °F 67% 29.63 in 10.0 mi South 11.5 mph 16.1 mph N/A   Drizzle
9:55 AM 53.1 °F - 42.8 °F 68% 29.63 in 10.0 mi South 6.9 mph - N/A Rain Light Rain
10:15 AM 53.4 °F - 40.8 °F 62% 29.63 in 10.0 mi SSW 10.4 mph - N/A   Overcast
10:34 AM 53.6 °F - 39.7 °F 59% 29.63 in 10.0 mi SSW 10.4 mph 16.1 mph N/A   Overcast
10:55 AM 53.1 °F - 38.7 °F 58% 29.62 in 10.0 mi SE 3.5 mph - N/A Rain Light Rain
11:15 AM 53.6 °F - 38.1 °F 56% 29.62 in 10.0 mi South 8.1 mph - N/A   Overcast
11:34 AM 54.0 °F - 38.3 °F 55% 29.62 in 10.0 mi SSE 10.4 mph - N/A   Overcast
11:55 AM 54.3 °F - 39.0 °F 56% 29.62 in 10.0 mi SSE 11.5 mph 16.1 mph N/A   Overcast
12:15 PM 54.5 °F - 40.8 °F 60% 29.62 in 10.0 mi South 12.7 mph 24.2 mph N/A Rain Light Rain
12:35 PM 53.1 °F - 41.0 °F 64% 29.62 in 10.0 mi South 12.7 mph - N/A   Overcast
12:55 PM 54.5 °F - 38.7 °F 55% 29.61 in 10.0 mi South 15.0 mph 23.0 mph N/A   Overcast
1:14 PM 56.3 °F - 37.4 °F 49% 29.60 in 10.0 mi South 13.8 mph 18.4 mph N/A   Mostly Cloudy
1:35 PM 56.5 °F - 36.3 °F 47% 29.60 in 10.0 mi South 12.7 mph 17.3 mph N/A   Mostly Cloudy
1:55 PM 56.8 °F - 36.7 °F 47% 29.59 in 10.0 mi SSW 13.8 mph 21.9 mph N/A   Mostly Cloudy
2:15 PM 58.3 °F - 36.3 °F 44% 29.58 in 10.0 mi South 8.1 mph 20.7 mph N/A   Mostly Cloudy
2:35 PM 58.5 °F - 36.9 °F 45% 29.58 in 10.0 mi SSE 9.2 mph 16.1 mph N/A   Mostly Cloudy
2:54 PM 57.2 °F - 36.1 °F 45% 29.58 in 10.0 mi South 10.4 mph 21.9 mph N/A   Mostly Cloudy
3:15 PM 57.4 °F - 36.1 °F 45% 29.58 in 10.0 mi South 15.0 mph 19.6 mph N/A   Overcast
3:34 PM 56.8 °F - 34.7 °F 43% 29.58 in 10.0 mi South 12.7 mph 25.3 mph N/A   Overcast
3:55 PM 56.3 °F - 34.5 °F 44% 29.58 in 10.0 mi South 12.7 mph 18.4 mph N/A   Overcast
4:15 PM 56.3 °F - 35.1 °F 45% 29.59 in 10.0 mi SSE 10.4 mph 16.1 mph N/A   Overcast
4:34 PM 55.9 °F - 36.3 °F 48% 29.59 in 10.0 mi SSE 10.4 mph 16.1 mph N/A   Overcast
4:55 PM 52.2 °F - 40.8 °F 65% 29.60 in 10.0 mi South 11.5 mph 26.5 mph N/A Rain Light Rain
5:14 PM 51.3 °F - 41.7 °F 70% 29.60 in 10.0 mi South 6.9 mph - N/A Rain Rain
5:35 PM 50.9 °F - 43.7 °F 76% 29.61 in 7.0 mi South 9.2 mph - N/A Rain Light Rain
5:55 PM 50.4 °F - 43.0 °F 76% 29.61 in 10.0 mi South 8.1 mph 16.1 mph N/A Rain Light Rain
6:15 PM 49.6 °F - 44.1 °F 81% 29.62 in 10.0 mi South 6.9 mph - N/A Rain Light Rain
6:35 PM 49.3 °F - 44.8 °F 84% 29.62 in 7.0 mi South 5.8 mph - N/A Rain Light Rain
6:54 PM 48.9 °F - 45.3 °F 87% 29.63 in 7.0 mi SSW 4.6 mph - N/A Rain Light Rain
7:15 PM 48.4 °F - 45.3 °F 89% 29.63 in 7.0 mi South 6.9 mph - N/A Rain Light Rain
7:35 PM 48.4 °F - 45.0 °F 88% 29.63 in 10.0 mi South 4.6 mph - N/A   Drizzle
7:54 PM 48.2 °F - 44.6 °F 87% 29.63 in 7.0 mi SW 8.1 mph 21.9 mph N/A Rain Rain
8:15 PM 47.8 °F - 43.7 °F 86% 29.62 in 10.0 mi South 9.2 mph - N/A Rain Rain
8:35 PM 47.5 °F - 43.7 °F 87% 29.62 in 10.0 mi SSW 5.8 mph - N/A Rain Light Rain
8:54 PM 47.3 °F - 43.9 °F 88% 29.62 in 10.0 mi SSW 4.6 mph - N/A   Drizzle
9:15 PM 47.3 °F - 43.9 °F 88% 29.62 in 10.0 mi South 5.8 mph - N/A Rain Rain
9:35 PM 47.1 °F - 43.7 °F 88% 29.62 in 10.0 mi SSW 4.6 mph - N/A Rain Rain
9:54 PM 46.9 °F - 43.7 °F 88% 29.62 in 10.0 mi South 3.5 mph - N/A Rain Rain
10:15 PM 46.6 °F - 43.7 °F 90% 29.62 in 10.0 mi South 3.5 mph - N/A Rain Rain
10:35 PM 46.6 °F - 43.7 °F 90% 29.61 in 10.0 mi SSW 4.6 mph - N/A Rain Rain
10:55 PM 46.4 °F 43.5 °F 43.2 °F 88% 29.61 in 10.0 mi SSW 5.8 mph - N/A Rain Rain
11:15 PM 46.4 °F 43.5 °F 43.5 °F 90% 29.61 in 10.0 mi SSW 5.8 mph - N/A   Drizzle
11:34 PM 46.4 °F 42.9 °F 43.3 °F 89% 29.61 in 10.0 mi SSW 6.9 mph - N/A   Drizzle
11:55 PM 46.0 °F 43.1 °F 43.2 °F 90% 29.61 in 10.0 mi SSW 5.8 mph - N/A Rain Rain